QPF
0.02 0.02 0.01 0.01 0.01 0.01 0.01 0.01 0.02 0.04 0.03 0.02 0.02 0.01 0.01 0.01 0.01 0.01 0.01 0.02 0.02 0.02 0.03 0.03 0.04 0.03 0.02 0.02 0.03 0.04 0.04 0.04 0.02 0.02 0.02 0.03 0.03 0.03 0.04 0.04 0.03 0.03 0.03
0.03 0.03 0.02 0.01 0.01 0.01 0.01 0.02 0.02 0.04 0.05 0.03 0.03 0.02 0.01 0.01 0.01 0.01 0.01 0.01 0.02 0.02 0.02 0.02 0.03 0.03 0.02 0.02 0.02 0.02 0.02 0.02 0.02 0.02 0.01 0.02 0.02 0.03 0.03 0.04 0.04 0.04 0.03
0.02 0.03 0.03 0.02 0.02 0.02 0.02 0.02 0.02 0.03 0.07 0.07 0.04 0.03 0.02 0.02 0.01 0.02 0.02 0.01 0.01 0.02 0.02 0.02 0.03 0.03 0.03 0.03 0.03 0.02 0.02 0.02 0.01 0.01 0.01 0.01 0.01 0.02 0.02 0.02 0.03 0.03 0.03
0.01 0.02 0.03 0.04 0.03 0.02 0.03 0.03 0.04 0.04 0.05 0.09 0.08 0.04 0.03 0.04 0.03 0.03 0.02 0.02 0.02 0.01 0.01 0.01 0.02 0.03 0.03 0.03 0.02 0.02 0.02 0.01 0.01 0.01 0.01 0.01 0.01 0.02 0.02 0.02 0.03 0.03 0.03
0.01 0.01 0.01 0.02 0.03 0.03 0.02 0.02 0.02 0.04 0.04 0.04 0.05 0.03 0.02 0.03 0.03 0.03 0.02 0.01 0.01 0.01 0.01 0.01 0.01 0.02 0.04 0.02 0.01 0.02 0.02 0.01 0.01 0.01 0.01 0.01 0.02 0.02 0.02 0.02 0.03 0.03 0.03
0.01 0.01 0.01 0.00 0.01 0.01 0.02 0.01 0.01 0.01 0.03 0.03 0.03 0.02 0.01 0.01 0.01 0.01 0.01 0.01 0.01 0.01 0.01 0.01 0.00 0.01 0.02 0.01 0.01 0.01 0.01 0.02 0.02 0.01 0.01 0.01 0.01 0.02 0.02 0.03 0.03 0.02 0.02
0.01 0.01 0.01 0.01 0.00 0.00 0.01 0.02 0.01 0.02 0.02 0.02 0.02 0.02 0.01 0.01 0.00 0.00 0.00 0.01 0.01 0.00 0.00 0.00 0.00 0.00 0.01 0.01 0.00 0.01 0.01 0.02 0.02 0.02 0.02 0.02 0.02 0.02 0.03 0.03 0.02 0.02 0.02
0.01 0.01 0.01 0.01 0.01 0.01 0.02 0.03 0.04 0.04 0.03 0.02 0.02 0.01 0.01 0.00 0.00 0.00 0.00 0.00 0.00 0.00 0.00 0.00 0.00 0.00 0.00 0.00 0.01 0.01 0.01 0.01 0.02 0.03 0.04 0.03 0.03 0.02 0.02 0.02 0.02 0.02 0.02
0.02 0.02 0.02 0.01 0.01 0.01 0.01 0.02 0.03 0.05 0.04 0.02 0.02 0.01 0.01 0.00 0.00 0.00 0.00 0.00 0.00 0.00 0.00 0.00 0.00 0.00 0.00 0.00 0.00 0.01 0.01 0.01 0.03 0.04 0.03 0.03 0.02 0.02 0.01 0.01 0.02 0.02 0.02
0.01 0.01 0.01 0.02 0.01 0.01 0.01 0.01 0.01 0.02 0.04 0.04 0.03 0.01 0.01 0.00 0.00 0.01 0.01 0.01 0.00 0.00 0.00 0.00 0.00 0.00 0.00 0.00 0.00 0.00 0.00 0.00 0.02 0.03 0.02 0.02 0.03 0.03 0.02 0.02 0.02 0.02 0.02
0.01 0.01 0.01 0.01 0.01 0.01 0.01 0.01 0.01 0.01 0.01 0.02 0.03 0.02 0.01 0.01 0.01 0.01 0.01 0.01 0.00 0.00 0.00 0.00 0.00 0.00 0.00 0.00 0.00 0.00 0.01 0.00 0.01 0.01 0.01 0.01 0.02 0.02 0.02 0.02 0.02 0.02 0.02
0.02 0.03 0.03 0.02 0.02 0.02 0.01 0.01 0.01 0.01 0.01 0.01 0.02 0.03 0.02 0.02 0.01 0.01 0.01 0.00 0.00 0.00 0.00 0.00 0.00 0.00 0.00 0.00 0.00 0.00 0.00 0.00 0.00 0.01 0.01 0.01 0.01 0.01 0.01 0.02 0.01 0.01 0.01
0.01 0.02 0.02 0.03 0.04 0.03 0.02 0.02 0.01 0.01 0.01 0.01 0.01 0.01 0.02 0.01 0.01 0.01 0.01 0.00 0.00 0.00 0.00 0.00 0.00 0.00 0.00 0.00 0.00 0.00 0.00 0.00 0.00 0.00 0.01 0.01 0.01 0.01 0.01 0.01 0.01 0.01 0.01
0.01 0.01 0.02 0.02 0.03 0.03 0.02 0.02 0.01 0.01 0.01 0.00 0.00 0.00 0.00 0.01 0.01 0.01 0.01 0.01 0.00 0.00 0.00 0.00 0.00 0.00 0.00 0.00 0.00 0.00 0.00 0.00 0.00 0.00 0.00 0.01 0.01 0.01 0.02 0.01 0.01 0.01 0.01
0.01 0.01 0.02 0.02 0.02 0.02 0.02 0.02 0.01 0.01 0.01 0.01 0.01 0.00 0.00 0.00 0.00 0.01 0.01 0.01 0.01 0.01 0.00 0.00 0.00 0.00 0.00 0.00 0.00 0.00 0.00 0.00 0.00 0.00 0.00 0.01 0.01 0.01 0.01 0.02 0.02 0.02 0.01
0.01 0.01 0.01 0.01 0.01 0.01 0.02 0.02 0.02 0.01 0.01 0.01 0.01 0.00 0.00 0.00 0.00 0.00 0.01 0.01 0.01 0.01 0.01 0.00 0.00 0.00 0.00 0.00 0.00 0.00 0.00 0.00 0.00 0.00 0.00 0.01 0.01 0.01 0.01 0.01 0.02 0.02 0.02
0.01 0.00 0.00 0.00 0.01 0.01 0.01 0.02 0.02 0.02 0.02 0.01 0.01 0.01 0.01 0.00 0.00 0.00 0.00 0.00 0.01 0.01 0.01 0.01 0.00 0.00 0.00 0.00 0.00 0.00 0.00 0.00 0.00 0.00 0.00 0.00 0.00 0.00 0.01 0.01 0.01 0.02 0.02
0.02 0.01 0.01 0.01 0.01 0.01 0.01 0.01 0.02 0.02 0.02 0.01 0.01 0.01 0.01 0.01 0.01 0.01 0.00 0.00 0.00 0.01 0.01 0.01 0.01 0.01 0.00 0.00 0.00 0.00 0.00 0.00 0.00 0.00 0.00 0.00 0.00 0.00 0.00 0.01 0.01 0.01 0.01
0.01 0.01 0.00 0.00 0.01 0.01 0.01 0.01 0.02 0.02 0.02 0.01 0.01 0.01 0.01 0.01 0.01 0.01 0.01 0.00 0.00 0.01 0.01 0.01 0.01 0.01 0.01 0.00 0.00 0.00 0.00 0.00 0.00 0.00 0.00 0.00 0.00 0.00 0.00 0.01 0.01 0.01 0.01
0.00 0.00 0.00 0.00 0.00 0.01 0.01 0.02 0.01 0.02 0.02 0.01 0.01 0.01 0.01 0.01 0.01 0.01 0.01 0.01 0.01 0.01 0.01 0.01 0.01 0.01 0.01 0.01 0.01 0.01 0.00 0.00 0.00 0.00 0.00 0.00 0.00 0.00 0.00 0.00 0.01 0.01 0.01
0.00 0.00 0.00 0.00 0.00 0.00 0.01 0.01 0.02 0.02 0.02 0.01 0.01 0.01 0.01 0.01 0.01 0.01 0.01 0.01 0.01 0.01 0.01 0.02 0.02 0.01 0.01 0.01 0.01 0.01 0.01 0.01 0.00 0.00 0.00 0.00 0.00 0.00 0.00 0.00 0.00 0.00 0.01
0.00 0.00 0.00 0.00 0.00 0.00 0.00 0.01 0.01 0.02 0.02 0.02 0.01 0.01 0.01 0.01 0.01 0.01 0.01 0.01 0.02 0.02 0.02 0.02 0.02 0.02 0.01 0.01 0.01 0.01 0.01 0.01 0.01 0.00 0.01 0.00 0.00 0.00 0.00 0.00 0.01 0.01 0.01
0.00 0.00 0.00 0.00 0.00 0.00 0.00 0.00 0.01 0.01 0.01 0.01 0.01 0.01 0.01 0.00 0.01 0.01 0.01 0.01 0.01 0.01 0.02 0.02 0.02 0.02 0.01 0.01 0.02 0.02 0.02 0.02 0.01 0.01 0.01 0.01 0.00 0.00 0.01 0.01 0.01 0.01 0.01
0.00 0.00 0.00 0.00 0.00 0.00 0.00 0.00 0.01 0.00 0.00 0.01 0.01 0.01 0.01 0.01 0.00 0.01 0.01 0.01 0.01 0.01 0.01 0.02 0.02 0.01 0.02 0.02 0.02 0.03 0.03 0.02 0.01 0.01 0.01 0.01 0.00 0.01 0.02 0.03 0.03 0.02 0.02
0.00 0.00 0.00 0.00 0.00 0.00 0.00 0.00 0.01 0.00 0.00 0.00 0.00 0.01 0.01 0.01 0.01 0.01 0.01 0.01 0.01 0.01 0.01 0.02 0.02 0.01 0.02 0.02 0.03 0.03 0.03 0.03 0.02 0.01 0.00 0.01 0.01 0.02 0.03 0.04 0.05 0.04 0.03
0.01 0.01 0.01 0.01 0.01 0.01 0.01 0.01 0.01 0.01 0.00 0.00 0.00 0.00 0.01 0.01 0.01 0.01 0.01 0.01 0.02 0.01 0.01 0.02 0.01 0.01 0.01 0.02 0.02 0.02 0.03 0.04 0.03 0.02 0.01 0.01 0.02 0.03 0.05 0.04 0.04 0.03 0.03
MSLP
1023.63 1023.64 1023.55 1023.38 1023.18 1022.95 1022.73 1022.52 1022.32 1022.11 1021.87 1021.59 1021.27 1020.92 1020.58 1020.26 1020.00 1019.80 1019.66 1019.56 1019.46 1019.34 1019.16 1018.93 1018.64 1018.31 1017.95 1017.60 1017.25 1016.93 1016.62 1016.31 1015.99 1015.65 1015.29 1014.91 1014.52 1014.13 1013.75 1013.40 1013.07 1012.78 1012.53
1023.82 1023.81 1023.70 1023.51 1023.29 1023.05 1022.83 1022.62 1022.43 1022.22 1021.99 1021.71 1021.37 1021.00 1020.61 1020.24 1019.91 1019.65 1019.46 1019.33 1019.22 1019.13 1019.01 1018.84 1018.62 1018.35 1018.05 1017.72 1017.38 1017.04 1016.71 1016.37 1016.03 1015.68 1015.32 1014.95 1014.56 1014.18 1013.80 1013.44 1013.08 1012.75 1012.46
1023.98 1023.96 1023.83 1023.64 1023.41 1023.18 1022.97 1022.78 1022.61 1022.42 1022.18 1021.89 1021.54 1021.12 1020.67 1020.22 1019.82 1019.47 1019.21 1019.03 1018.91 1018.83 1018.75 1018.65 1018.51 1018.32 1018.08 1017.80 1017.49 1017.15 1016.81 1016.45 1016.10 1015.73 1015.37 1015.00 1014.63 1014.25 1013.87 1013.49 1013.12 1012.76 1012.43
1024.11 1024.08 1023.95 1023.77 1023.57 1023.36 1023.18 1023.01 1022.86 1022.68 1022.45 1022.14 1021.75 1021.29 1020.77 1020.24 1019.73 1019.30 1018.95 1018.70 1018.55 1018.46 1018.41 1018.37 1018.31 1018.20 1018.03 1017.81 1017.54 1017.22 1016.88 1016.52 1016.15 1015.78 1015.41 1015.04 1014.67 1014.30 1013.92 1013.54 1013.15 1012.77 1012.41
1024.20 1024.16 1024.06 1023.90 1023.73 1023.57 1023.42 1023.29 1023.15 1022.98 1022.75 1022.43 1022.00 1021.49 1020.90 1020.29 1019.69 1019.15 1018.71 1018.39 1018.18 1018.07 1018.03 1018.02 1018.01 1017.97 1017.87 1017.71 1017.49 1017.21 1016.88 1016.53 1016.16 1015.78 1015.41 1015.04 1014.67 1014.30 1013.92 1013.52 1013.13 1012.73 1012.35
1024.23 1024.21 1024.13 1024.02 1023.90 1023.79 1023.68 1023.58 1023.46 1023.29 1023.05 1022.71 1022.26 1021.71 1021.07 1020.39 1019.71 1019.09 1018.56 1018.15 1017.87 1017.71 1017.64 1017.63 1017.64 1017.64 1017.59 1017.48 1017.30 1017.06 1016.76 1016.42 1016.07 1015.70 1015.34 1014.97 1014.60 1014.22 1013.83 1013.43 1013.02 1012.61 1012.22
1024.20 1024.20 1024.17 1024.11 1024.05 1023.98 1023.91 1023.83 1023.72 1023.55 1023.31 1022.96 1022.49 1021.91 1021.25 1020.53 1019.81 1019.12 1018.51 1018.02 1017.66 1017.42 1017.29 1017.24 1017.23 1017.22 1017.19 1017.10 1016.96 1016.75 1016.48 1016.18 1015.85 1015.50 1015.15 1014.79 1014.42 1014.04 1013.65 1013.24 1012.83 1012.42 1012.03
1024.13 1024.15 1024.16 1024.15 1024.14 1024.11 1024.07 1024.00 1023.89 1023.72 1023.46 1023.11 1022.65 1022.09 1021.43 1020.71 1019.98 1019.25 1018.59 1018.02 1017.57 1017.23 1017.01 1016.87 1016.80 1016.74 1016.69 1016.60 1016.47 1016.28 1016.05 1015.78 1015.49 1015.18 1014.85 1014.51 1014.16 1013.79 1013.40 1012.99 1012.58 1012.17 1011.78
1024.00 1024.05 1024.10 1024.14 1024.15 1024.15 1024.11 1024.04 1023.92 1023.74 1023.48 1023.14 1022.71 1022.18 1021.57 1020.90 1020.19 1019.47 1018.78 1018.15 1017.60 1017.16 1016.81 1016.56 1016.38 1016.24 1016.12 1016.00 1015.86 1015.69 1015.49 1015.27 1015.02 1014.75 1014.47 1014.16 1013.83 1013.48 1013.10 1012.70 1012.30 1011.90 1011.53
1023.85 1023.92 1023.99 1024.05 1024.08 1024.08 1024.03 1023.94 1023.79 1023.59 1023.33 1023.02 1022.63 1022.17 1021.64 1021.05 1020.39 1019.71 1019.01 1018.34 1017.72 1017.16 1016.69 1016.30 1015.99 1015.74 1015.54 1015.37 1015.20 1015.03 1014.86 1014.68 1014.48 1014.26 1014.03 1013.77 1013.48 1013.15 1012.80 1012.42 1012.04 1011.66 1011.32
1023.67 1023.75 1023.83 1023.90 1023.93 1023.90 1023.83 1023.69 1023.51 1023.29 1023.03 1022.74 1022.42 1022.04 1021.61 1021.11 1020.54 1019.91 1019.24 1018.55 1017.86 1017.21 1016.62 1016.10 1015.66 1015.30 1015.00 1014.76 1014.56 1014.39 1014.23 1014.08 1013.93 1013.77 1013.58 1013.37 1013.13 1012.84 1012.53 1012.18 1011.82 1011.48 1011.17
1023.47 1023.56 1023.64 1023.69 1023.69 1023.63 1023.51 1023.33 1023.11 1022.87 1022.61 1022.35 1022.08 1021.78 1021.45 1021.05 1020.58 1020.02 1019.39 1018.70 1017.98 1017.26 1016.57 1015.94 1015.39 1014.93 1014.55 1014.25 1014.01 1013.82 1013.67 1013.54 1013.43 1013.30 1013.17 1013.00 1012.80 1012.56 1012.28 1011.97 1011.66 1011.35 1011.08
1023.26 1023.34 1023.40 1023.42 1023.39 1023.29 1023.12 1022.89 1022.63 1022.36 1022.10 1021.86 1021.64 1021.42 1021.17 1020.86 1020.48 1020.00 1019.41 1018.74 1018.01 1017.25 1016.51 1015.81 1015.18 1014.65 1014.21 1013.86 1013.58 1013.38 1013.22 1013.10 1013.00 1012.90 1012.78 1012.65 1012.48 1012.28 1012.04 1011.78 1011.51 1011.25 1011.02
1023.02 1023.08 1023.11 1023.11 1023.04 1022.90 1022.68 1022.42 1022.12 1021.83 1021.57 1021.34 1021.15 1020.97 1020.79 1020.55 1020.24 1019.81 1019.28 1018.64 1017.93 1017.17 1016.41 1015.69 1015.03 1014.45 1013.98 1013.59 1013.29 1013.06 1012.89 1012.75 1012.64 1012.53 1012.42 1012.29 1012.15 1011.97 1011.77 1011.55 1011.33 1011.12 1010.94
1022.74 1022.78 1022.79 1022.75 1022.65 1022.48 1022.24 1021.95 1021.63 1021.32 1021.05 1020.82 1020.64 1020.48 1020.33 1020.13 1019.86 1019.48 1018.99 1018.39 1017.72 1016.99 1016.25 1015.54 1014.89 1014.31 1013.83 1013.43 1013.11 1012.85 1012.64 1012.47 1012.32 1012.18 1012.05 1011.91 1011.76 1011.60 1011.43 1011.25 1011.07 1010.91 1010.77
1022.42 1022.43 1022.42 1022.37 1022.25 1022.06 1021.81 1021.50 1021.18 1020.86 1020.57 1020.33 1020.14 1019.98 1019.82 1019.63 1019.37 1019.01 1018.55 1018.00 1017.36 1016.69 1016.00 1015.33 1014.72 1014.18 1013.71 1013.31 1012.98 1012.69 1012.44 1012.21 1012.01 1011.82 1011.64 1011.47 1011.30 1011.14 1010.98 1010.83 1010.70 1010.58 1010.49
1022.05 1022.05 1022.02 1021.95 1021.84 1021.65 1021.40 1021.10 1020.78 1020.46 1020.15 1019.89 1019.67 1019.47 1019.28 1019.06 1018.78 1018.42 1017.98 1017.45 1016.87 1016.25 1015.63 1015.03 1014.48 1013.98 1013.55 1013.16 1012.82 1012.51 1012.21 1011.93 1011.66 1011.41 1011.18 1010.96 1010.77 1010.59 1010.44 1010.31 1010.21 1010.13 1010.07
1021.66 1021.64 1021.60 1021.54 1021.43 1021.26 1021.03 1020.74 1020.42 1020.09 1019.78 1019.48 1019.21 1018.96 1018.71 1018.43 1018.11 1017.73 1017.28 1016.78 1016.23 1015.67 1015.12 1014.59 1014.11 1013.68 1013.28 1012.92 1012.58 1012.24 1011.91 1011.58 1011.26 1010.95 1010.66 1010.40 1010.18 1009.99 1009.84 1009.72 1009.63 1009.58 1009.55
1021.25 1021.23 1021.19 1021.14 1021.04 1020.89 1020.67 1020.40 1020.09 1019.75 1019.40 1019.06 1018.73 1018.41 1018.09 1017.74 1017.37 1016.95 1016.49 1015.99 1015.48 1014.96 1014.47 1014.02 1013.60 1013.22 1012.87 1012.54 1012.21 1011.87 1011.52 1011.16 1010.80 1010.45 1010.12 1009.83 1009.59 1009.39 1009.23 1009.11 1009.03 1008.98 1008.96
1020.87 1020.85 1020.81 1020.76 1020.67 1020.53 1020.33 1020.06 1019.74 1019.38 1018.99 1018.60 1018.21 1017.81 1017.41 1016.99 1016.55 1016.09 1015.60 1015.10 1014.61 1014.14 1013.69 1013.29 1012.93 1012.61 1012.30 1012.01 1011.70 1011.38 1011.03 1010.67 1010.30 1009.94 1009.60 1009.30 1009.04 1008.83 1008.67 1008.55 1008.47 1008.41 1008.39
1020.54 1020.51 1020.48 1020.42 1020.34 1020.19 1019.98 1019.70 1019.35 1018.96 1018.53 1018.07 1017.61 1017.14 1016.66 1016.17 1015.67 1015.17 1014.66 1014.16 1013.67 1013.22 1012.82 1012.46 1012.14 1011.86 1011.61 1011.35 1011.09 1010.80 1010.48 1010.15 1009.80 1009.46 1009.13 1008.84 1008.59 1008.38 1008.21 1008.08 1007.98 1007.91 1007.86
1020.27 1020.23 1020.19 1020.13 1020.03 1019.86 1019.62 1019.31 1018.93 1018.48 1017.99 1017.47 1016.94 1016.40 1015.86 1015.31 1014.77 1014.23 1013.70 1013.19 1012.71 1012.28 1011.90 1011.57 1011.30 1011.06 1010.84 1010.63 1010.41 1010.17 1009.91 1009.63 1009.33 1009.03 1008.74 1008.47 1008.24 1008.03 1007.86 1007.72 1007.60 1007.50 1007.42
1020.04 1020.00 1019.95 1019.87 1019.74 1019.53 1019.25 1018.89 1018.45 1017.95 1017.40 1016.82 1016.23 1015.63 1015.04 1014.46 1013.88 1013.32 1012.78 1012.28 1011.81 1011.39 1011.02 1010.72 1010.47 1010.26 1010.08 1009.91 1009.75 1009.56 1009.36 1009.14 1008.90 1008.66 1008.42 1008.19 1007.98 1007.78 1007.61 1007.45 1007.31 1007.19 1007.07
1019.85 1019.81 1019.74 1019.62 1019.45 1019.20 1018.87 1018.45 1017.95 1017.39 1016.79 1016.16 1015.53 1014.90 1014.28 1013.67 1013.09 1012.53 1011.99 1011.49 1011.03 1010.62 1010.27 1009.98 1009.74 1009.55 1009.40 1009.27 1009.15 1009.02 1008.88 1008.72 1008.54 1008.35 1008.15 1007.96 1007.77 1007.59 1007.41 1007.25 1007.09 1006.94 1006.80
1019.66 1019.61 1019.52 1019.37 1019.16 1018.86 1018.47 1018.00 1017.45 1016.85 1016.20 1015.54 1014.89 1014.25 1013.62 1013.02 1012.45 1011.90 1011.38 1010.90 1010.45 1010.05 1009.71 1009.42 1009.19 1009.01 1008.88 1008.77 1008.68 1008.59 1008.48 1008.37 1008.24 1008.09 1007.93 1007.76 1007.59 1007.41 1007.24 1007.06 1006.90 1006.74 1006.59
1019.46 1019.39 1019.28 1019.10 1018.84 1018.50 1018.07 1017.55 1016.97 1016.34 1015.68 1015.02 1014.37 1013.74 1013.14 1012.56 1012.02 1011.50 1011.00 1010.54 1010.11 1009.72 1009.37 1009.09 1008.85 1008.67 1008.54 1008.43 1008.35 1008.27 1008.19 1008.10 1007.99 1007.86 1007.72 1007.56 1007.40 1007.22 1007.05 1006.88 1006.71 1006.55 1006.40
Thickness
5625 5624 5624 5624 5624 5625 5626 5626 5626 5626 5627 5627 5627 5627 5627 5627 5627 5627 5627 5627 5627 5626 5626 5626 5626 5625 5625 5625 5625 5623 5622 5622 5622 5622 5622 5622 5622 5622 5622 5622 5622 5622 5622
5616 5616 5615 5615 5616 5616 5617 5617 5617 5617 5617 5618 5618 5617 5618 5618 5618 5618 5618 5618 5617 5617 5616 5616 5616 5616 5615 5615 5615 5614 5613 5613 5613 5613 5613 5614 5614 5613 5613 5614 5614 5614 5614
5607 5607 5607 5607 5607 5607 5608 5608 5608 5608 5608 5608 5608 5608 5608 5609 5609 5609 5608 5608 5608 5607 5606 5606 5606 5605 5604 5604 5604 5604 5604 5603 5603 5603 5604 5604 5604 5604 5604 5605 5605 5606 5606
5598 5598 5598 5598 5598 5598 5598 5598 5598 5598 5597 5597 5597 5598 5598 5598 5599 5599 5598 5598 5597 5596 5595 5595 5594 5593 5593 5593 5593 5593 5593 5593 5593 5593 5593 5594 5594 5594 5595 5595 5596 5597 5597
5589 5589 5588 5588 5588 5588 5587 5588 5587 5587 5586 5586 5587 5588 5588 5589 5589 5589 5588 5587 5586 5585 5584 5583 5582 5582 5581 5581 5581 5581 5581 5582 5582 5582 5582 5582 5583 5584 5584 5585 5586 5587 5588
5579 5579 5578 5578 5578 5577 5577 5577 5576 5576 5576 5576 5577 5578 5578 5579 5580 5578 5577 5576 5575 5574 5572 5571 5570 5569 5569 5568 5568 5569 5569 5570 5570 5570 5571 5571 5571 5572 5573 5574 5575 5577 5577
5569 5568 5568 5567 5567 5567 5566 5566 5566 5565 5564 5565 5565 5565 5568 5570 5570 5568 5567 5565 5564 5562 5561 5560 5558 5557 5556 5556 5556 5556 5556 5557 5558 5558 5559 5559 5560 5561 5562 5563 5564 5565 5566
5558 5558 5557 5557 5556 5556 5556 5555 5555 5553 5552 5552 5551 5551 5552 5555 5557 5558 5555 5553 5552 5550 5549 5548 5546 5545 5544 5543 5543 5543 5543 5544 5545 5546 5546 5547 5548 5549 5551 5552 5552 5554 5555
5547 5547 5547 5546 5546 5546 5545 5544 5544 5542 5540 5540 5539 5538 5537 5538 5538 5542 5542 5541 5539 5537 5536 5535 5534 5532 5531 5531 5530 5530 5530 5530 5531 5532 5533 5534 5536 5537 5538 5539 5540 5541 5542
5537 5537 5536 5536 5535 5535 5534 5533 5533 5532 5530 5528 5527 5527 5526 5525 5523 5524 5527 5527 5526 5524 5523 5522 5521 5519 5518 5518 5517 5517 5517 5517 5518 5519 5520 5521 5523 5524 5525 5526 5527 5528 5529
5527 5526 5526 5525 5524 5524 5523 5522 5521 5520 5518 5517 5516 5515 5514 5513 5512 5509 5511 5512 5512 5511 5510 5509 5508 5506 5505 5505 5504 5504 5504 5504 5505 5506 5507 5508 5509 5510 5512 5513 5514 5515 5516
5515 5515 5514 5514 5513 5513 5512 5511 5510 5508 5507 5506 5505 5504 5502 5500 5499 5497 5496 5497 5497 5498 5497 5496 5495 5493 5492 5492 5491 5491 5491 5491 5491 5492 5493 5494 5495 5496 5498 5499 5500 5501 5502
5504 5503 5503 5502 5501 5502 5501 5500 5499 5497 5496 5495 5494 5493 5492 5490 5488 5485 5484 5484 5484 5485 5485 5484 5482 5480 5480 5479 5478 5478 5478 5478 5479 5479 5480 5480 5481 5483 5484 5485 5486 5487 5489
5495 5494 5493 5492 5492 5491 5491 5490 5488 5487 5486 5484 5483 5482 5480 5478 5476 5474 5471 5470 5470 5472 5472 5471 5470 5468 5467 5466 5466 5465 5465 5465 5466 5466 5467 5468 5469 5470 5471 5472 5473 5474 5476
5485 5484 5484 5483 5483 5482 5481 5480 5478 5477 5475 5474 5472 5471 5469 5467 5465 5463 5460 5458 5455 5456 5459 5459 5456 5456 5454 5454 5453 5453 5453 5453 5453 5454 5455 5456 5456 5457 5458 5459 5460 5462 5463
5476 5476 5474 5474 5473 5472 5471 5470 5468 5467 5466 5464 5462 5459 5457 5455 5453 5451 5449 5446 5444 5442 5444 5447 5444 5442 5441 5441 5440 5440 5441 5441 5441 5442 5442 5443 5444 5445 5446 5447 5449 5450 5451
5467 5466 5465 5464 5463 5462 5461 5460 5459 5457 5455 5453 5451 5449 5446 5444 5442 5439 5437 5435 5433 5431 5431 5434 5431 5430 5429 5429 5429 5428 5429 5429 5430 5430 5431 5432 5433 5433 5434 5435 5437 5438 5439
5458 5457 5456 5455 5454 5453 5451 5450 5449 5447 5445 5443 5441 5438 5436 5434 5431 5429 5427 5424 5422 5420 5419 5421 5420 5418 5418 5418 5417 5417 5417 5418 5418 5419 5419 5420 5421 5421 5422 5423 5425 5426 5428
5448 5447 5446 5445 5445 5444 5442 5440 5439 5437 5436 5434 5432 5430 5428 5425 5422 5420 5417 5415 5412 5411 5409 5408 5409 5407 5407 5407 5406 5406 5406 5407 5407 5408 5408 5408 5409 5410 5411 5412 5414 5416 5418
5439 5438 5437 5436 5436 5435 5433 5431 5429 5428 5427 5425 5423 5421 5419 5416 5414 5412 5409 5406 5403 5401 5399 5398 5398 5398 5397 5396 5395 5395 5396 5396 5397 5397 5397 5397 5398 5399 5400 5402 5404 5406 5408
5430 5429 5428 5427 5427 5425 5424 5422 5421 5419 5418 5417 5415 5413 5411 5409 5407 5404 5402 5399 5396 5393 5390 5389 5389 5388 5387 5385 5384 5384 5385 5386 5387 5386 5387 5387 5388 5390 5390 5392 5393 5396 5398
5421 5420 5420 5419 5417 5417 5416 5414 5413 5411 5410 5409 5408 5406 5404 5401 5399 5397 5395 5392 5389 5385 5383 5381 5380 5379 5379 5377 5376 5375 5374 5375 5377 5377 5376 5378 5379 5380 5382 5383 5385 5387 5390
5413 5412 5411 5410 5409 5408 5407 5406 5405 5404 5402 5401 5400 5398 5397 5394 5392 5390 5387 5385 5382 5379 5376 5374 5372 5372 5371 5370 5368 5367 5365 5364 5366 5367 5367 5370 5371 5372 5374 5375 5377 5379 5381
5405 5404 5403 5403 5401 5401 5400 5399 5398 5397 5395 5394 5392 5391 5389 5387 5385 5383 5380 5377 5374 5372 5370 5368 5367 5366 5365 5363 5361 5360 5359 5358 5359 5359 5358 5360 5362 5364 5366 5367 5369 5371 5373
5397 5397 5396 5395 5394 5393 5393 5392 5391 5389 5387 5386 5385 5384 5382 5381 5379 5377 5374 5371 5368 5366 5364 5363 5362 5361 5359 5357 5355 5353 5352 5351 5352 5352 5351 5351 5353 5355 5358 5360 5361 5363 5364
5391 5390 5389 5388 5388 5387 5386 5385 5384 5383 5381 5380 5379 5378 5376 5374 5372 5370 5367 5364 5362 5360 5359 5358 5357 5355 5353 5351 5349 5347 5345 5344 5343 5344 5345 5343 5343 5344 5349 5352 5353 5354 5355